x

Tanner Bank - 121nm West Of San Diego, Ca (46047) Wave Buoy

5:50pm - Fri 23rd Jun 2017 All times are PDT. -7 hours from GMT.

  • Sig Wave height 5.9ft
  • Swell Direction
  • Peak Period 16s
  • Average Period 10s
  • Wind
    11mph, 16mph gusts
  • Sea Temp 63°f
  • 空気 Temp 60°f
  • Sea Pressure 1013mb
  • Tanner Bank - 121nm West Of San Diego, Ca
  • Tanner Bank - 121nm West Of San Diego, Ca

More Historic Weather Station data

Upgrade to MSW Pro to gain access to the past 30 days of data for over 8000 Wavebouys and Weather Stations around the globe.

Join Pro

Comparision Forecast

View Surf forecast
   
Fri 06/23 5:50pm 6ft 16s 10s 11 16 mph 1013mb 63f 60f
4:50pm 6.5ft 15s 10s 11 16 mph 1013.4mb 63f 60f
3:50pm 6ft 14s 10s 13 16 mph 1013.1mb 62f 60f
2:50pm 6.5ft 16s 10s 7 9 mph 1013.8mb 62f 60f
1:50pm 7ft 14s 10s 4 7 mph 1014.2mb 62f 60f
12:50pm 6ft 15s 10s 7 11 mph 1013.7mb 62f 60f
11:50am 6ft 16s 10s 4 7 mph 1014mb 62f 59f
10:50am 6.5ft 11s 9s 2 4 mph 1014.1mb 62f 59f
9:50am 6ft 15s 9s 2 4 mph 1013.6mb 62f 59f
8:50am 6.5ft 16s 10s 4 7 mph 1013.6mb 62f 59f
7:50am 6ft 16s 10s 4 7 mph 1013.2mb 61f 58f
6:50am 6ft 14s 10s 4 7 mph 1012.5mb 61f 58f
5:50am 7ft 16s 10s 7 9 mph 1012.1mb 62f 59f
4:50am 6ft 14s 10s 4 9 mph 1011.5mb 62f 58f
3:50am 7ft 12s 10s 7 11 mph 1011.4mb 62f 59f
2:50am 6ft 11s 9s 4 9 mph 1011.6mb 62f 59f
12:50am 7.5ft 11s 10s 4 9 mph 1011.8mb 62f 59f
Thu 06/22 11:50pm 8ft 12s 10s 4 7 mph 1011.9mb 62f 59f
10:50pm 8ft 12s 9s 4 7 mph 1011.7mb 62f 60f
9:50pm 7.5ft 12s 10s 2 7 mph 1011.1mb 62f 59f
8:50pm 8ft 12s 10s 4 7 mph 1010.6mb 62f 60f
7:50pm 7.5ft 11s 10s 7 9 mph 1010.1mb 62f 60f
6:50pm 8ft 14s 10s 4 7 mph 1009.9mb 62f 60f
5:50pm 7ft 15s 9s 4 7 mph 1009.9mb 62f 60f
4:50pm 8ft 11s 9s 4 7 mph 1010mb 63f 60f
3:50pm 7.5ft 13s 9s 7 9 mph 1010mb 63f 60f
2:50pm 7ft 11s 9s 4 7 mph 1010.4mb 63f 60f
1:50pm 8ft 11s 9s 4 7 mph 1010.5mb 62f 60f
12:50pm 8ft 14s 9s 4 7 mph 1010.8mb 62f 59f
11:50am 8.5ft 13s 9s 4 7 mph 1010.7mb 62f 58f
10:50am 8ft 12s 9s 4 7 mph 1010.6mb 62f 58f
9:50am 7ft 12s 9s 4 7 mph 1010.1mb 62f 58f
8:50am 7ft 12s 8s 7 11 mph 1009.7mb 62f 57f
7:50am 8ft 12s 9s 7 9 mph 1009.1mb 61f 57f
6:50am 8ft 12s 9s 9 11 mph 1008.3mb 61f 57f
5:50am 8ft 12s 8s 9 11 mph 1008mb 61f 57f
4:50am 7.5ft 12s 8s 11 13 mph 1007.6mb 61f 57f
3:50am 7.5ft 11s 8s 11 16 mph 1007.5mb 61f 57f
2:50am 8ft 11s 8s 11 16 mph 1007.4mb 61f 57f
1:50am 7.5ft 11s 7s 13 16 mph 1007.7mb 61f 57f
12:50am 8ft 11s 7s 16 20 mph 1007.8mb 61f 57f
Wed 06/21 11:50pm 8.5ft 10s 7s 16 20 mph 1007.8mb 61f 58f
10:50pm 9ft 10s 7s 16 20 mph 1007.9mb 61f 58f
9:50pm 9ft 11s 7s 20 22 mph 1007.3mb 61f 58f
8:50pm 9ft 10s 7s 20 25 mph 1007mb 61f 58f
7:50pm 8.5ft 10s 7s 18 22 mph 1006.8mb 61f 59f
6:50pm 8ft 8s 7s 20 25 mph 1006.9mb 61f 59f
5:50pm 8ft 10s 7s 22 25 mph 1006.7mb 61f 59f
3:50pm 8ft 9s 7s 20 25 mph 1008.1mb 60f 60f
2:50pm 8.5ft 9s 7s 20 25 mph 1008.5mb 60f 59f
1:50pm 9ft 8s 7s 20 25 mph 1009.2mb 60f 59f
12:50pm 9ft 9s 7s 20 22 mph 1009.6mb 60f 59f
11:50am 10ft 10s 7s 22 27 mph 1009.5mb 59f 59f
10:50am 10.5ft 10s 7s 22 27 mph 1009.8mb 59f 59f
9:50am 9.5ft 10s 7s 22 27 mph 1009.7mb 59f 58f
8:50am 9ft 9s 7s 20 27 mph 1009.6mb 59f 58f
7:50am 9ft 10s 7s 22 27 mph 1009.3mb 59f 58f
6:50am 9ft 10s 7s 22 27 mph 1009mb 59f 58f
5:50am 8ft 14s 7s 20 27 mph 1009.1mb 59f 58f
4:50am 7.5ft 15s 7s 20 25 mph 1009mb 59f 58f
3:50am 7.5ft 14s 7s 20 22 mph 1009.2mb 59f 58f
2:50am 7.5ft 15s 6s 20 25 mph 1009.3mb 59f 58f
1:50am 8ft 10s 6s 18 22 mph 1010mb 59f 58f
12:50am 8.5ft 10s 7s 20 25 mph 1010.1mb 59f 58f
Tue 06/20 11:50pm 9ft 10s 7s 20 27 mph 1010.2mb 59f 58f
10:50pm 8ft 10s 6s 20 22 mph 1010.5mb 59f 58f
9:50pm 8.5ft 15s 7s 20 27 mph 1010.4mb 59f 58f
8:50pm 8ft 15s 7s 20 25 mph 1010.1mb 59f 58f
7:50pm 8ft 15s 7s 20 25 mph 1009.8mb 60f 59f
6:50pm 7ft 9s 7s 20 25 mph 1010.1mb 60f 59f
5:50pm 7ft 16s 7s 20 25 mph 1010.2mb 60f 59f
4:50pm 7ft 15s 7s 20 22 mph 1010.5mb 60f 59f
3:50pm 6.5ft 16s 7s 18 20 mph 1011.4mb 60f 60f
2:50pm 6ft 15s 7s 18 20 mph 1011.5mb 60f 59f
1:50pm 6ft 15s 6s 18 20 mph 1012mb 60f 59f
12:50pm 6ft 10s 7s 18 20 mph 1012.6mb 60f 59f
11:50am 6ft 15s 7s 16 18 mph 1013.1mb 60f 59f
10:50am 6ft 9s 6s 16 20 mph 1012.9mb 60f 58f
9:50am 6.5ft 16s 7s 13 18 mph 1012.7mb 60f 58f
8:50am 6ft 10s 6s 16 20 mph 1012.5mb 60f 58f
7:50am 7ft 10s 7s 18 20 mph 1011.9mb 60f 58f
6:50am 7ft 10s 7s 18 22 mph 1011.3mb 60f 57f
5:50am 6ft 10s 7s 18 20 mph 1011.1mb 60f 58f
4:50am 6ft 16s 7s 18 22 mph 1010.7mb 60f 58f
3:50am 5.5ft 16s 7s 16 18 mph 1010.9mb 60f 58f
2:50am 5.5ft 16s 7s 16 20 mph 1010.9mb 60f 58f